User: anonymous   Login
Location: Harburg
(48.7667°N, 10.6667°E)
Time: 08:33:29
(UTC+00:00)
Language:

Cosmos 1844 - Orbit

View from above orbital plane
View from above orbital plane
View from above satellite
View from above satellite

Ground track
Ground track

The orbit data is extracted from the following two-line orbital elements,

1 17973U 87041A   20329.79357546 -.00000173 +00000-0 -65384-4 0  9992
2 17973 070.8967 145.1081 0029665 036.1678 324.1441 14.14116543730587
Epoch (UTC): 24 November 2020 19:02:44
Eccentricity: 0.0029665
inclination: 70.8967°
perigee height: 824 km
apogee height: 867 km
right ascension of ascending node: 145.1081°
argument of perigee: 36.1678°
revolutions per day: 14.14116543
mean anomaly at epoch: 324.1441°
orbit number at epoch: 73058

The dashed part of the orbit path shows where the satellite is in the earth's shadow,  

DLR